[[{"header":{"parameterUnit":"m.s-1","parameterCategory":1,"la1":30.2991,"la2":30.254,"lo1":-89.0895,"lo2":-89.0444,"dy":0.0017,"dx":0.0017,"nx":28,"ny":28,"refTime":"2025-04-25T21:00:00:Z","depth":0,"parameterNumber":2,"parameterNumberName":"U-component_of_WINDS"},"data":[0,0,0,0,0,0,0,0,0,0,0,0,0,0,0,0,0,0,0,0,0,0,0,0,0,0,0,0,0,0,0,0,0,0,0,0,0,0,0,0,0,0,0,0,0,0,0,0,0,0,0,0,0,0,0,0,0,0,-1.7598,-1.7598,0,-1.7521,-1.752,-1.7519,-1.7439,-1.7438,-1.7437,-1.7436,-1.7356,-1.7355,-1.7354,0,0,0,0,0,0,0,0,0,0,0,0,0,-1.7677,-1.7676,-1.7598,-1.7597,-1.7597,-1.7521,-1.752,-1.7519,-1.7439,-1.7438,-1.7437,-1.7435,-1.7357,-1.7355,-1.7354,0,0,0,0,0,0,0,0,0,0,0,0,0,-1.7626,-1.7675,-1.7599,-1.7548,-1.7542,-1.7521,-1.752,-1.7519,-1.744,-1.7438,-1.7436,-1.7435,-1.7357,-1.7355,-1.7354,-1.7377,0,0,-1.7349,-1.7348,0,0,0,0,0,0,0,0,-1.7629,-1.7623,-1.7556,-1.7551,-1.7545,-1.7488,-1.7518,-1.7471,-1.744,-1.7479,-1.7436,-1.7434,-1.7401,-1.7396,-1.7385,-1.7373,-1.737,-1.7349,-1.7348,-1.7347,-1.7346,0,0,0,0,0,0,0,-1.7632,-1.7626,-1.7568,-1.7555,-1.7548,-1.7528,-1.7519,-1.7509,-1.745,-1.7475,-1.7469,-1.7461,-1.7398,-1.7387,-1.7383,-1.7368,-1.7349,-1.7347,-1.7346,-1.7346,-1.737,-1.7372,0,0,0,0,0,0,-1.7643,-1.7629,-1.757,-1.7565,-1.7584,-1.7528,-1.7518,-1.7508,-1.745,-1.744,-1.7462,-1.7458,-1.739,-1.7385,-1.7379,-1.7401,-1.7347,-1.7345,-1.7344,-1.7369,-1.7371,-1.7372,0,0,0,0,0,0,-1.7645,-1.7639,-1.7573,-1.7596,-1.7586,-1.7529,-1.7518,-1.7507,-1.7496,-1.7441,-1.743,-1.7462,-1.7389,-1.7382,-1.7378,-1.7398,-1.7345,-1.7343,-1.7367,-1.7369,-1.7372,-1.7447,0,0,0,0,0,0,-1.7648,-1.764,-1.7648,-1.7596,-1.7585,-1.7573,-1.7519,-1.7507,-1.7493,-1.7486,-1.7437,-1.7427,-1.7387,-1.7381,-1.7376,-1.7394,-1.7342,-1.7365,-1.7368,-1.7371,-1.7442,-1.7451,-1.7459,0,0,0,0,0,-1.7651,-1.7673,-1.7649,-1.7643,-1.7594,-1.7575,-1.7568,-1.7521,-1.7495,-1.7503,-1.7467,-1.7429,-1.7397,-1.7381,-1.7375,-1.7393,-1.7363,-1.7367,-1.7371,-1.7438,-1.745,-1.7459,0,0,0,0,0,0,-1.7729,-1.7665,-1.7638,-1.7644,-1.7615,-1.7561,-1.7569,-1.7535,-1.7513,-1.7507,-1.745,-1.744,-1.7442,-1.7417,-1.7401,-1.7412,-1.7374,-1.7377,-1.7428,-1.7438,-1.7447,-1.7452,-1.734,0,0,0,0,0,-1.7747,-1.7736,-1.7681,-1.7691,-1.7679,-1.7627,-1.7617,-1.7583,-1.7551,-1.7539,-1.7503,-1.7473,-1.7456,-1.7446,-1.7427,-1.7439,-1.7426,-1.7448,-1.7457,-1.7464,-1.7467,-1.747,-1.7479,-1.7385,-1.7385,-1.7384,0,0,-1.7783,-1.7747,-1.7744,-1.7706,-1.768,-1.767,-1.7617,-1.7609,-1.7601,-1.7537,-1.7531,-1.7504,-1.7467,-1.7471,-1.747,-1.745,-1.749,-1.7469,-1.7475,-1.7474,-1.7475,-1.7484,-1.7492,-1.7387,-1.7387,-1.7386,0,0,-1.7844,-1.7817,-1.7822,-1.7797,-1.7758,-1.7723,-1.7725,-1.7676,-1.7655,-1.7648,-1.76,-1.7589,-1.7562,-1.7537,-1.7521,-1.7573,-1.7537,-1.7569,-1.7613,-1.7617,-1.7625,-1.7631,-1.7648,-1.7655,-1.7572,-1.7572,-1.7572,0,-1.7895,-1.7878,-1.7829,-1.7823,-1.7808,-1.775,-1.7754,-1.7732,-1.769,-1.768,-1.7658,-1.7621,-1.7593,-1.7589,-1.7602,-1.7591,-1.759,-1.7574,-1.7628,-1.7633,-1.7638,-1.7654,-1.7661,-1.7576,-1.7576,-1.7575,-1.7575,0,-1.7941,-1.7931,-1.7939,-1.7899,-1.7885,-1.7885,-1.7835,-1.7826,-1.7794,-1.7762,-1.7755,-1.7719,-1.7691,-1.7688,-1.7657,-1.768,-1.7669,-1.7638,-1.7599,-1.7652,-1.7666,-1.7672,-1.7582,-1.7581,-1.7579,-1.7578,0,0,-1.8049,-1.7981,-1.7985,-1.7966,-1.7919,-1.7909,-1.7907,-1.788,-1.7873,-1.7846,-1.7841,-1.7819,-1.779,-1.7772,-1.7738,-1.7742,-1.7784,-1.771,-1.7708,-1.7724,-1.7806,-1.7829,-1.7837,-1.776,-1.7761,-1.7762,-1.7809,0,-1.8101,-1.8092,-1.8047,-1.8051,-1.804,-1.7985,-1.7982,-1.7953,-1.7923,-1.7909,-1.7876,-1.7861,-1.7824,-1.7813,-1.7814,-1.7779,-1.7799,-1.7775,-1.7754,-1.7754,-1.7764,-1.7844,-1.7868,-1.7914,-1.7814,-1.7815,-1.7816,0,-1.816,-1.8136,-1.8139,-1.8092,-1.8086,-1.8084,-1.8055,-1.8043,-1.8009,-1.7987,-1.7967,-1.7928,-1.7922,-1.7886,-1.7876,-1.786,-1.7849,-1.7831,-1.7831,-1.7826,-1.7787,-1.784,-1.7927,-1.7934,-1.7824,-1.7823,-1.7823,0,-1.8237,-1.8206,-1.8203,-1.8188,-1.8133,-1.8133,-1.8111,-1.8075,-1.8061,-1.8036,-1.8027,-1.8002,-1.7988,-1.797,-1.7925,-1.7904,-1.792,-1.788,-1.79,-1.7901,-1.7905,-1.7905,-1.799,-1.7901,-1.79,-1.79,-1.79,0,-1.8299,-1.8303,-1.8236,-1.8235,-1.8237,-1.8186,-1.8189,-1.8161,-1.813,-1.8121,-1.8073,-1.8066,-1.8008,-1.7995,-1.796,-1.7956,-1.795,-1.7932,-1.7922,-1.7935,-1.7938,-1.7926,-1.7922,-1.7902,-1.7902,-1.7901,-1.7901,0,-1.8385,-1.834,-1.8334,-1.8282,-1.8269,-1.8273,-1.8229,-1.8225,-1.8192,-1.8182,-1.8177,-1.8125,-1.8107,-1.8061,-1.803,-1.8007,-1.8012,-1.7995,-1.8024,-1.8017,-1.8039,-1.8037,-1.8119,-1.8127,-1.8034,-1.8035,-1.8036,0,-1.8427,-1.8428,-1.8377,-1.8367,-1.8346,-1.8332,-1.8318,-1.8268,-1.8255,-1.8216,-1.8217,-1.8195,-1.8174,-1.8147,-1.8107,-1.8083,-1.8065,-1.8095,-1.8061,-1.8074,-1.8064,-1.8064,-1.8063,-1.8102,-1.8104,-1.8105,-1.8105,0,-1.8505,-1.8483,-1.8465,-1.8439,-1.8424,-1.8401,-1.8375,-1.8371,-1.8314,-1.8302,-1.8283,-1.8267,-1.8236,-1.8214,-1.8184,-1.816,-1.8123,-1.8117,-1.812,-1.8133,-1.8148,-1.8139,-1.8043,-1.8115,-1.8114,-1.8113,-1.8113,-1.8112,-1.8569,-1.8568,-1.8531,-1.8512,-1.8488,-1.8465,-1.8458,-1.8425,-1.8408,-1.8378,-1.835,-1.8333,-1.8298,-1.8254,-1.8233,-1.8218,-1.82,-1.8204,-1.8205,-1.8207,-1.8212,-1.8152,-1.8213,-1.8213,-1.8212,-1.8212,-1.8212,0,-1.8645,-1.8618,-1.8602,-1.8567,-1.8552,-1.8519,-1.8489,-1.8479,-1.8465,-1.8435,-1.8416,-1.8393,-1.8372,-1.833,-1.8305,-1.8302,-1.8284,-1.8296,-1.8296,-1.829,-1.8231,-1.8231,-1.8311,-1.8311,-1.8311,-1.8311,-1.8311,-1.8311,-1.8682,-1.8677,-1.8651,-1.8633,-1.8607,-1.859,-1.8575,-1.8554,-1.853,-1.8507,-1.8489,-1.8462,-1.8427,-1.8399,-1.8378,-1.8366,-1.8358,-1.8376,-1.8359,-1.8304,-1.8295,-1.8286,-1.8285,-1.8375,-1.8375,-1.8419,-1.8419,-1.8419]},{"header":{"parameterUnit":"m.s-1","parameterCategory":1,"la1":30.2991,"la2":30.254,"lo1":-89.0895,"lo2":-89.0444,"dy":0.0017,"dx":0.0017,"nx":28,"ny":28,"refTime":"2025-04-25T21:00:00:Z","depth":0,"parameterNumber":3,"parameterNumberName":"V-component_of_WINDS"},"data":[0,0,0,0,0,0,0,0,0,0,0,0,0,0,0,0,0,0,0,0,0,0,0,0,0,0,0,0,0,0,0,0,0,0,0,0,0,0,0,0,0,0,0,0,0,0,0,0,0,0,0,0,0,0,0,0,0,0,2.0023,2.0023,0,2.0001,2.0001,2.0,1.9992,1.9992,1.9992,1.9992,1.9967,1.9966,1.9966,0,0,0,0,0,0,0,0,0,0,0,0,0,2.0058,2.0057,2.0023,2.0023,2.0023,2.0001,2.0001,2.0,1.9992,1.9992,1.9992,1.9992,1.9967,1.9966,1.9965,0,0,0,0,0,0,0,0,0,0,0,0,0,2.004,2.0057,2.0023,2.0016,2.0015,2.0001,2.0001,2.0,1.9992,1.9992,1.9992,1.9992,1.9967,1.9966,1.9965,1.9956,0,0,1.9962,1.9961,0,0,0,0,0,0,0,0,2.0041,2.0038,2.0017,2.0016,2.0015,1.9999,2.0004,1.9985,1.9992,2.0001,1.9992,1.9992,1.9977,1.9976,1.9971,1.9955,1.9954,1.9962,1.9961,1.9961,1.996,0,0,0,0,0,0,0,2.0042,2.0039,2.0014,2.0017,2.0016,2.0013,2.0011,2.0,1.9989,2.0,1.9999,1.9997,1.9977,1.9972,1.997,1.9954,1.9962,1.9961,1.996,1.996,1.993,1.993,0,0,0,0,0,0,2.0045,2.004,2.0015,2.0014,2.0029,2.0013,2.001,2.0004,1.9989,1.9986,1.9997,1.9996,1.9974,1.9972,1.9969,1.9958,1.9961,1.996,1.9959,1.9931,1.993,1.993,0,0,0,0,0,0,2.0045,2.0043,2.0016,2.0027,2.0023,2.0012,2.0006,2.0004,1.9999,1.9986,1.9984,1.9994,1.9974,1.9971,1.996,1.9957,1.9959,1.9958,1.9931,1.993,1.993,1.9936,0,0,0,0,0,0,2.0046,2.0043,2.0039,2.0027,2.0023,2.0007,2.0006,2.0003,1.9997,1.9997,1.9983,1.9981,1.9974,1.9962,1.9959,1.9956,1.9957,1.9931,1.9931,1.993,1.9936,1.9936,1.9936,0,0,0,0,0,2.0048,2.0041,2.0039,2.0036,2.0019,2.0007,2.0005,1.9997,1.9997,1.9994,1.9986,1.9981,1.9958,1.9961,1.9957,1.9954,1.9931,1.9931,1.993,1.9936,1.9936,1.9936,0,0,0,0,0,0,2.0053,2.004,2.0037,2.0027,2.0018,2.0006,2.0001,1.9997,1.9988,1.9988,1.9978,1.9975,1.9965,1.9959,1.9961,1.9945,1.9944,1.9943,1.995,1.995,1.995,1.9951,1.9956,0,0,0,0,0,2.0053,2.0045,2.0034,2.0026,2.0022,2.0012,2.0007,2.0002,1.9993,1.9989,1.998,1.997,1.9961,1.9955,1.9946,1.9935,1.9932,1.9931,1.9932,1.9932,1.9931,1.9925,1.9925,1.9929,1.9929,1.9929,0,0,2.0053,2.0045,2.004,2.0027,2.002,2.0012,2.0009,2.0001,1.9994,1.9987,1.9977,1.997,1.9959,1.9948,1.9943,1.9942,1.9929,1.9931,1.9931,1.993,1.9925,1.9925,1.9924,1.9929,1.9929,1.9929,0,0,2.0048,2.0041,2.0034,2.0027,2.0017,2.0011,2.0009,1.9998,1.9993,1.9983,1.9977,1.997,1.9954,1.9946,1.994,1.9935,1.993,1.9932,1.9932,1.9927,1.9926,1.9926,1.9924,1.9923,1.9931,1.9931,1.9931,0,2.0049,2.0037,2.0031,2.0023,2.0017,2.0011,2.0004,1.9997,1.9984,1.998,1.998,1.9961,1.9953,1.994,1.9939,1.9935,1.9932,1.9933,1.9927,1.9927,1.9926,1.9924,1.9923,1.9931,1.9931,1.9931,1.9931,0,2.0039,2.0031,2.0026,2.0015,2.0009,2.0001,1.9993,1.9987,1.9984,1.9977,1.9967,1.9958,1.9947,1.9943,1.9939,1.9931,1.9931,1.9929,1.9928,1.9926,1.9924,1.9923,1.9932,1.9932,1.9932,1.9931,0,0,2.0036,2.0022,2.002,2.0015,2.0004,1.9998,1.999,1.998,1.9976,1.9967,1.996,1.9948,1.9946,1.994,1.9934,1.993,1.9926,1.9928,1.9928,1.9928,1.9917,1.9919,1.9918,1.9924,1.9924,1.9924,1.9918,0,2.003,2.0016,2.0011,2.0,1.9992,1.9987,1.9981,1.9973,1.9967,1.996,1.9954,1.9945,1.9944,1.994,1.9935,1.9928,1.9924,1.9928,1.9917,1.9917,1.992,1.9917,1.9918,1.9913,1.9917,1.9917,1.9917,0,2.0021,2.0013,2.0002,1.9992,1.9989,1.9983,1.9974,1.9967,1.9959,1.9955,1.9948,1.9944,1.9935,1.9936,1.9924,1.9927,1.9923,1.9918,1.9918,1.9916,1.9917,1.9915,1.9912,1.9911,1.9916,1.9916,1.9916,0,2.002,2.0007,1.9999,1.9994,1.9983,1.9979,1.9974,1.9966,1.9961,1.9953,1.9949,1.994,1.9935,1.9928,1.9921,1.9922,1.991,1.991,1.9907,1.9907,1.9904,1.9904,1.99,1.9902,1.9902,1.9902,1.9902,0,2.0014,2.0007,1.9998,1.9993,1.9985,1.9979,1.9971,1.9966,1.9959,1.9952,1.9947,1.9941,1.9933,1.9926,1.992,1.9912,1.9909,1.9906,1.9905,1.9906,1.9907,1.9903,1.9903,1.9902,1.9902,1.9902,1.9902,0,2.0011,2.0005,1.9996,1.9986,1.9984,1.9978,1.997,1.9965,1.996,1.9952,1.9949,1.9941,1.9932,1.9925,1.9914,1.991,1.9901,1.99,1.9904,1.9904,1.9901,1.9901,1.9894,1.9892,1.9895,1.9895,1.9895,0,2.0007,2.0002,1.9992,1.9988,1.9984,1.9977,1.9972,1.9965,1.996,1.9951,1.9947,1.9938,1.9931,1.9918,1.991,1.9902,1.99,1.9898,1.9898,1.99,1.99,1.99,1.9899,1.9897,1.9897,1.9897,1.9897,0,2.0001,1.9999,1.9992,1.9984,1.9979,1.9972,1.9966,1.9962,1.9955,1.995,1.9941,1.9936,1.9925,1.9916,1.9907,1.9902,1.9898,1.9898,1.9896,1.9898,1.9901,1.9899,1.9904,1.9897,1.9897,1.9897,1.9897,1.9897,1.9998,1.9993,1.9986,1.9979,1.9974,1.9968,1.9963,1.9957,1.995,1.9941,1.9938,1.993,1.9922,1.991,1.9905,1.9898,1.9897,1.9895,1.9895,1.9895,1.9895,1.9902,1.9896,1.9896,1.9896,1.9896,1.9896,0,1.9991,1.9987,1.9981,1.9972,1.9966,1.9965,1.9958,1.9953,1.9946,1.9939,1.9933,1.9923,1.9916,1.9908,1.99,1.9896,1.9894,1.9894,1.9894,1.9893,1.9896,1.9898,1.9896,1.9896,1.9896,1.9896,1.9896,1.9896,1.9988,1.998,1.9977,1.9967,1.9962,1.9954,1.995,1.9945,1.994,1.993,1.9924,1.992,1.9913,1.9904,1.9897,1.9895,1.9892,1.9892,1.989,1.9892,1.9893,1.9893,1.9894,1.9892,1.9892,1.9887,1.9887,1.9887]}]]